Location: Bakov nad Jizerou
(50.4784°N, 14.9394°E)
Time: 17:31:15
(UTC+00:00)

Cosmos 2322 - Pass Details

Date: 28 October 2021
Orbit: 841 x 854 km, 71.0° (Epoch: 04 December)

Event Time Altitude Azimuth Distance (km) Brightness Sun altitude
Rises 19:36:37 0° 247° (WSW) 3,418 7.3 -37.0°
Reaches altitude 10° 19:39:26 10° 259° (W) 2,485 6.6 -37.4°
Maximum altitude 19:44:17 28° 317° (NW) 1,564 5.5 -38.1°
Enters shadow 19:44:39 28° 324° (NW) 1,571 5.5 -38.1°
